Time,TemperatureF,DewpointF,PressureIn,WindDirection,WindDirectionDegrees,WindSpeedMPH,WindSpeedGustMPH,Humidity,HourlyPrecipIn,Conditions,Clouds,dailyrainin,SolarRadiationWatts/m^2,SoftwareType,DateUTC
2013-03-17 14:14:00,27.7,7.6,29.96,NW,315,8.0,0.0,42,0.00,CLR,,0.00,661.0,WeatherDisplay:10.37,2013-03-17 18:14:00,
2013-03-17 14:15:00,27.7,7.6,29.96,NW,311,14.0,0.0,42,0.00,CLR,,0.00,661.0,WeatherDisplay:10.37,2013-03-17 18:15:00,
2013-03-17 14:20:00,27.6,7.5,29.96,NW,306,18.4,18.4,42,0.00,CLR,,0.00,673.0,WeatherDisplay:10.37,2013-03-17 18:20:00,
2013-03-17 14:22:00,27.5,7.4,29.96,West,276,18.4,18.4,42,0.00,CLR,,0.00,635.0,WeatherDisplay:10.37,2013-03-17 18:22:00,
2013-03-17 14:25:00,27.5,7.4,29.96,West,276,18.4,18.4,42,0.00,CLR,,0.00,635.0,WeatherDisplay:10.37,2013-03-17 18:25:00,
2013-03-17 14:30:00,27.5,7.4,29.96,West,276,18.4,18.4,42,0.00,CLR,,0.00,635.0,WeatherDisplay:10.37,2013-03-17 18:30:00,
2013-03-17 14:40:00,27.0,5.8,29.98,WNW,297,15.0,23.0,40,0.00,CLR,,0.00,545.0,WeatherDisplay:10.37,2013-03-17 18:40:00,
2013-03-17 14:45:00,26.9,6.3,29.98,WNW,291,14.0,18.0,41,0.00,CLR,,0.00,526.0,WeatherDisplay:10.37,2013-03-17 18:45:00,
2013-03-17 14:55:00,26.9,6.3,29.98,West,281,7.0,20.0,41,0.00,CLR,,0.00,524.0,WeatherDisplay:10.37,2013-03-17 18:55:00,
2013-03-17 15:00:00,27.0,6.9,29.98,WNW,285,8.0,20.0,42,0.00,BKN,,0.00,295.0,WeatherDisplay:10.37,2013-03-17 19:00:00,
2013-03-17 15:10:00,26.7,6.1,29.98,WNW,284,8.0,16.0,41,0.00,BKN,,0.00,105.0,WeatherDisplay:10.37,2013-03-17 19:10:00,
2013-03-17 15:15:00,26.6,6.0,29.98,WNW,290,7.0,14.0,41,0.00,BKN,,0.00,149.0,WeatherDisplay:10.37,2013-03-17 19:15:00,
2013-03-17 15:16:00,26.6,6.6,29.98,NW,309,13.0,13.0,42,0.00,BKN,,0.00,120.0,WeatherDisplay:10.37,2013-03-17 19:16:00,
2013-03-17 15:20:00,26.6,6.6,29.98,NW,309,13.0,13.0,42,0.00,BKN,,0.00,120.0,WeatherDisplay:10.37,2013-03-17 19:20:00,
2013-03-17 15:25:00,26.6,6.6,29.98,NW,309,13.0,13.0,42,0.00,BKN,,0.00,120.0,WeatherDisplay:10.37,2013-03-17 19:25:00,
2013-03-17 15:30:00,26.6,6.6,29.98,NW,309,13.0,13.0,42,0.00,BKN,,0.00,120.0,WeatherDisplay:10.37,2013-03-17 19:30:00,
2013-03-17 15:35:00,26.5,6.5,29.98,WNW,287,15.0,15.0,42,0.00,FEW,,0.00,378.0,WeatherDisplay:10.37,2013-03-17 19:35:00,
2013-03-17 15:40:00,26.5,5.9,29.99,WNW,291,18.4,18.4,41,0.00,BKN,,0.00,120.0,WeatherDisplay:10.37,2013-03-17 19:40:00,
2013-03-17 15:45:00,26.5,6.5,29.99,WSW,256,12.7,12.7,42,0.00,SCT,,0.00,299.0,WeatherDisplay:10.37,2013-03-17 19:45:00,
2013-03-17 15:50:00,26.9,5.8,29.99,WSW,257,13.8,13.8,40,0.00,BKN,,0.00,81.0,WeatherDisplay:10.37,2013-03-17 19:50:00,
2013-03-17 15:55:00,26.9,5.8,30.00,WNW,290,12.7,12.7,40,0.00,SCT,,0.00,297.0,WeatherDisplay:10.37,2013-03-17 19:55:00,
2013-03-17 16:00:00,27.2,5.5,30.00,NW,311,16.1,16.1,39,0.00,SCT,,0.00,318.0,WeatherDisplay:10.37,2013-03-17 20:00:00,
2013-03-17 16:05:00,27.3,5.0,30.00,West,272,16.1,16.1,38,0.00,SCT,,0.00,309.0,WeatherDisplay:10.37,2013-03-17 20:05:00,
2013-03-17 16:10:00,27.0,5.3,30.00,NW,304,15.0,15.0,39,0.00,BKN,,0.00,183.0,WeatherDisplay:10.37,2013-03-17 20:10:00,
2013-03-17 16:15:00,27.1,5.4,30.00,WNW,291,16.1,16.1,39,0.00,SCT,,0.00,290.0,WeatherDisplay:10.37,2013-03-17 20:15:00,
2013-03-17 16:20:00,27.0,5.3,30.00,NW,321,12.7,12.7,39,0.00,BKN,,0.00,195.0,WeatherDisplay:10.37,2013-03-17 20:20:00,
2013-03-17 16:25:00,26.7,5.0,30.01,West,281,13.8,13.8,39,0.00,BKN,,0.00,202.0,WeatherDisplay:10.37,2013-03-17 20:25:00,
2013-03-17 16:30:00,26.7,5.6,30.01,WNW,283,13.8,13.8,40,0.00,BKN,,0.00,69.0,WeatherDisplay:10.37,2013-03-17 20:30:00,
2013-03-17 16:35:00,26.5,4.8,30.01,West,280,16.1,16.1,39,0.00,BKN,,0.00,144.0,WeatherDisplay:10.37,2013-03-17 20:35:00,
2013-03-17 16:40:00,26.5,4.8,30.01,WNW,303,17.3,17.3,39,0.00,BKN,,0.00,79.0,WeatherDisplay:10.37,2013-03-17 20:40:00,
2013-03-17 16:45:00,26.3,4.7,30.01,NW,323,17.3,17.3,39,0.00,BKN,,0.00,158.0,WeatherDisplay:10.37,2013-03-17 20:45:00,
2013-03-17 16:50:00,26.3,4.7,30.01,West,268,15.0,15.0,39,0.00,BKN,,0.00,46.0,WeatherDisplay:10.37,2013-03-17 20:50:00,
2013-03-17 16:55:00,26.2,5.1,30.02,West,281,7.0,7.0,40,0.00,BKN,,0.00,42.0,WeatherDisplay:10.37,2013-03-17 20:55:00,
2013-03-17 17:01:00,26.0,4.9,30.02,WNW,290,12.7,0.0,40,0.00,CLR,,0.00,70.0,WeatherDisplay:10.37,2013-03-17 21:01:00,
2013-03-17 17:06:00,26.0,4.9,30.02,WNW,296,11.5,11.5,40,0.00,BKN,,0.00,69.0,WeatherDisplay:10.37,2013-03-17 21:06:00,
2013-03-17 17:11:00,25.9,4.3,30.02,NW,309,11.5,11.5,39,0.00,BKN,,0.00,77.0,WeatherDisplay:10.37,2013-03-17 21:11:00,
2013-03-17 17:16:00,26.0,4.4,30.02,West,270,12.7,12.7,39,0.00,BKN,,0.00,54.0,WeatherDisplay:10.37,2013-03-17 21:16:00,
2013-03-17 17:21:00,26.0,3.8,30.03,West,271,19.6,19.6,38,0.00,BKN,,0.00,58.0,WeatherDisplay:10.37,2013-03-17 21:21:00,
2013-03-17 17:27:00,25.9,3.7,30.03,NW,311,13.8,13.8,38,0.00,SCT,,0.00,113.0,WeatherDisplay:10.37,2013-03-17 21:27:00,
2013-03-17 17:32:00,25.8,3.6,30.03,West,272,12.7,12.7,38,0.00,BKN,,0.00,54.0,WeatherDisplay:10.37,2013-03-17 21:32:00,
2013-03-17 17:37:00,25.8,3.6,30.04,West,274,16.1,16.1,38,0.00,BKN,,0.00,47.0,WeatherDisplay:10.37,2013-03-17 21:37:00,
2013-03-17 17:42:00,25.8,4.2,30.04,WNW,303,11.5,11.5,39,0.00,BKN,,0.00,42.0,WeatherDisplay:10.37,2013-03-17 21:42:00,
2013-03-17 17:47:00,25.7,3.6,30.04,West,279,9.0,9.0,38,0.00,BKN,,0.00,35.0,WeatherDisplay:10.37,2013-03-17 21:47:00,
2013-03-17 17:52:00,25.6,3.5,30.04,West,273,11.5,11.5,38,0.00,BKN,,0.00,33.0,WeatherDisplay:10.37,2013-03-17 21:52:00,
2013-03-17 17:57:00,25.5,3.4,30.04,West,269,18.4,18.4,38,0.00,BKN,,0.00,32.0,WeatherDisplay:10.37,2013-03-17 21:57:00,
2013-03-17 18:02:00,25.4,2.7,30.04,WNW,292,18.4,18.4,37,0.00,BKN,,0.00,30.0,WeatherDisplay:10.37,2013-03-17 22:02:00,
2013-03-17 18:07:00,25.3,3.2,30.06,SSE,153,15.0,15.0,38,0.00,BKN,,0.00,26.0,WeatherDisplay:10.37,2013-03-17 22:07:00,
2013-03-17 18:12:00,25.2,2.5,30.06,WNW,288,4.0,4.5,37,0.00,BKN,,0.00,23.0,WeatherDisplay:10.37,2013-03-17 22:12:00,
2013-03-17 18:18:00,25.1,2.4,30.06,WSW,257,15.0,15.0,37,0.00,BKN,,0.00,21.0,WeatherDisplay:10.37,2013-03-17 22:18:00,
2013-03-17 18:23:00,24.9,1.7,30.06,West,269,5.0,5.0,36,0.00,BKN,,0.00,21.0,WeatherDisplay:10.37,2013-03-17 22:23:00,
2013-03-17 18:28:00,24.8,1.6,30.06,West,259,11.5,11.5,36,0.00,BKN,,0.00,18.0,WeatherDisplay:10.37,2013-03-17 22:28:00,
2013-03-17 18:33:00,24.8,1.6,30.06,WNW,290,15.0,15.0,36,0.00,BKN,,0.00,16.0,WeatherDisplay:10.37,2013-03-17 22:33:00,
2013-03-17 18:38:00,24.7,1.5,30.07,West,281,11.5,11.5,36,0.00,BKN,,0.00,12.0,WeatherDisplay:10.37,2013-03-17 22:38:00,
2013-03-17 18:43:00,24.5,1.9,30.07,West,267,12.7,12.7,37,0.00,SCT,,0.00,11.0,WeatherDisplay:10.37,2013-03-17 22:43:00,
2013-03-17 18:48:00,24.4,1.2,30.07,WNW,300,4.6,4.6,36,0.00,CLR,,0.00,7.0,WeatherDisplay:10.37,2013-03-17 22:48:00,
2013-03-17 18:53:00,24.2,1.6,30.08,NW,315,3.5,3.5,37,0.00,CLR,,0.00,5.0,WeatherDisplay:10.37,2013-03-17 22:53:00,
2013-03-17 18:58:00,24.0,1.5,30.08,West,275,10.4,10.4,37,0.00,CLR,,0.00,0.0,WeatherDisplay:10.37,2013-03-17 22:58:00,
2013-03-17 19:03:00,24.0,1.5,30.08,West,279,11.5,11.5,37,0.00,CLR,,0.00,0.0,WeatherDisplay:10.37,2013-03-17 23:03:00,
2013-03-17 19:08:00,24.0,2.6,30.09,NW,305,4.6,4.6,39,0.00,CLR,,0.00,0.0,WeatherDisplay:10.37,2013-03-17 23:08:00,
2013-03-17 19:13:00,23.8,1.8,30.09,NW,304,3.5,3.5,38,0.00,CLR,,0.00,0.0,WeatherDisplay:10.37,2013-03-17 23:13:00,
2013-03-17 19:18:00,23.6,1.7,30.09,WNW,295,3.5,3.5,38,0.00,CLR,,0.00,0.0,WeatherDisplay:10.37,2013-03-17 23:18:00,
2013-03-17 19:23:00,23.4,0.9,30.11,West,278,2.3,2.3,37,0.00,CLR,,0.00,0.0,WeatherDisplay:10.37,2013-03-17 23:23:00,
2013-03-17 19:28:00,23.3,2.5,30.11,WNW,285,4.6,4.6,40,0.00,CLR,,0.00,0.0,WeatherDisplay:10.37,2013-03-17 23:28:00,
2013-03-17 19:33:00,23.3,2.5,30.11,WNW,291,11.5,11.5,40,0.00,CLR,,0.00,0.0,WeatherDisplay:10.37,2013-03-17 23:33:00,
2013-03-17 19:38:00,23.4,2.6,30.12,WSW,242,10.4,10.4,40,0.00,CLR,,0.00,0.0,WeatherDisplay:10.37,2013-03-17 23:38:00,
2013-03-17 19:43:00,23.4,3.1,30.12,WNW,294,10.4,10.4,41,0.00,CLR,,0.00,0.0,WeatherDisplay:10.37,2013-03-17 23:43:00,
2013-03-17 19:48:00,23.2,2.9,30.12,WNW,290,13.0,13.0,41,0.00,CLR,,0.00,0.0,WeatherDisplay:10.37,2013-03-17 23:48:00,
2013-03-17 19:53:00,23.2,2.9,30.14,WNW,303,11.5,11.5,41,0.00,CLR,,0.00,0.0,WeatherDisplay:10.37,2013-03-17 23:53:00,
2013-03-17 19:58:00,23.2,2.9,30.14,West,279,11.5,11.5,41,0.00,CLR,,0.00,0.0,WeatherDisplay:10.37,2013-03-17 23:58:00,
2013-03-17 20:03:00,23.2,3.5,30.14,NNW,330,15.0,15.0,42,0.00,CLR,,0.00,0.0,WeatherDisplay:10.37,2013-03-18 00:03:00,
2013-03-17 20:08:00,23.1,2.9,30.15,NW,308,11.5,11.5,41,0.00,CLR,,0.00,0.0,WeatherDisplay:10.37,2013-03-18 00:08:00,
2013-03-17 20:13:00,23.0,5.3,30.15,NW,326,11.5,11.5,46,0.00,CLR,,0.00,0.0,WeatherDisplay:10.37,2013-03-18 00:13:00,
2013-03-17 20:18:00,22.9,3.7,30.15,NE,36,6.9,6.9,43,0.00,CLR,,0.00,0.0,WeatherDisplay:10.37,2013-03-18 00:18:00,
2013-03-17 20:23:00,22.7,3.0,30.16,WNW,292,3.5,3.5,42,0.00,CLR,,0.00,0.0,WeatherDisplay:10.37,2013-03-18 00:23:00,
2013-03-17 20:28:00,22.5,3.3,30.16,NW,314,11.5,11.5,43,0.00,CLR,,0.00,0.0,WeatherDisplay:10.37,2013-03-18 00:28:00,
2013-03-17 20:33:00,22.5,3.8,30.16,WNW,303,5.8,5.8,44,0.00,CLR,,0.00,0.0,WeatherDisplay:10.37,2013-03-18 00:33:00,
2013-03-17 20:38:00,22.4,3.7,30.17,NW,304,4.6,4.6,44,0.00,CLR,,0.00,0.0,WeatherDisplay:10.37,2013-03-18 00:38:00,
2013-03-17 20:43:00,22.2,3.6,30.17,NNE,31,4.6,4.6,44,0.00,CLR,,0.00,0.0,WeatherDisplay:10.37,2013-03-18 00:43:00,
2013-03-17 20:48:00,22.1,3.5,30.17,WNW,296,5.0,5.0,44,0.00,CLR,,0.00,0.0,WeatherDisplay:10.37,2013-03-18 00:48:00,
2013-03-17 20:53:00,22.0,3.9,30.18,NNW,340,15.0,15.0,45,0.00,CLR,,0.00,0.0,WeatherDisplay:10.37,2013-03-18 00:53:00,
2013-03-17 20:58:00,22.1,3.5,30.18,WNW,289,9.2,9.2,44,0.00,CLR,,0.00,0.0,WeatherDisplay:10.37,2013-03-18 00:58:00,
2013-03-17 21:03:00,21.9,2.8,30.18,West,264,8.1,8.1,43,0.00,CLR,,0.00,0.0,WeatherDisplay:10.37,2013-03-18 01:03:00,
2013-03-17 21:08:00,21.6,3.0,30.19,West,264,3.5,3.5,44,0.00,CLR,,0.00,0.0,WeatherDisplay:10.37,2013-03-18 01:08:00,
2013-03-17 21:13:00,21.5,2.4,30.19,West,280,6.9,6.9,43,0.00,CLR,,0.00,0.0,WeatherDisplay:10.37,2013-03-18 01:13:00,
2013-03-17 21:20:00,21.3,2.7,30.19,WNW,287,2.0,7.0,44,0.00,CLR,,0.00,0.0,WeatherDisplay:10.37,2013-03-18 01:20:00,
2013-03-17 21:24:00,21.2,3.2,30.19,WNW,297,9.0,15.0,45,0.00,CLR,,0.00,0.0,WeatherDisplay:10.37,2013-03-18 01:24:00,
2013-03-17 21:30:00,21.4,3.3,30.19,WNW,291,8.0,16.0,45,0.00,CLR,,0.00,0.0,WeatherDisplay:10.37,2013-03-18 01:30:00,
2013-03-17 21:40:00,21.4,3.3,30.19,WNW,290,8.0,17.0,45,0.00,CLR,,0.00,0.0,WeatherDisplay:10.37,2013-03-18 01:40:00,
2013-03-17 21:45:00,21.3,3.7,30.19,WNW,293,9.0,13.0,46,0.00,CLR,,0.00,0.0,WeatherDisplay:10.37,2013-03-18 01:45:00,
2013-03-17 21:50:00,21.2,3.6,30.19,WNW,299,9.0,13.0,46,0.00,CLR,,0.00,0.0,WeatherDisplay:10.37,2013-03-18 01:50:00,
2013-03-17 21:54:00,21.2,3.6,30.20,WNW,297,7.0,16.0,46,0.00,CLR,,0.00,0.0,WeatherDisplay:10.37,2013-03-18 01:54:00,
2013-03-17 22:00:00,21.1,3.5,30.20,WNW,293,10.0,14.0,46,0.00,CLR,,0.00,0.0,WeatherDisplay:10.37,2013-03-18 02:00:00,